User: anonymous   Login
Location: Unspecified
(0.0000°N, 0.0000°E)
Time: 09:17:31
(UTC+00:00)
Language:

COSMOS 2496 - Orbit

View from above orbital plane
View from above orbital plane
View from above satellite
View from above satellite

Ground track
Ground track

The orbit data is extracted from the following two-line orbital elements,

1 39761U 14028A   24063.86235115  .00000035  00000-0  17806-3 0  9990
2 39761  82.4403 271.9399 0020270  99.5167 260.8204 12.42889254443746
Epoch (UTC): 03 March 2024 20:41:47
Eccentricity: 0.0020270
inclination: 82.4403°
perigee height: 1478 km
apogee height: 1510 km
right ascension of ascending node: 271.9399°
argument of perigee: 99.5167°
revolutions per day: 12.42889254
mean anomaly at epoch: 260.8204°
orbit number at epoch: 44374

The dashed part of the orbit path shows where the satellite is in the earth's shadow,  

DLR